STARLINK-3758, 52297

Orbit data source: Space-Track

STARLINK-3758, 52297 is a payload satellite owned by SpaceX/Seattle (US) in LEO that was launched on Thu, 21 Apr 2022 UTC via an FALCON 9 launch vehicle from the Air Force Eastern Test Range (AFETR). Payload-class satellites include a variety of spacecraft equipped with specific instruments for various scientific and technological missions. These include communications satellites like Starlink; space stations such as the ISS; scientific satellites like the Hubble; Earth observation satellites from companies like Planet Labs, Umbra, and HawkEye 360; GPS; miniature CubeSats for education and research; and military/defense satellites.

Loading next visibility...
Identifier
52297, 2022-041AN
Orbit
LEO
Country
Flag of USUS
Related business
Manufacturer
SpaceX/Seattle
Mission
Operational Commercial Communications
Bus & Motor
STARLINK, Unknown motor
Mass
297 kg wet, ~275 kg dry
Launch date (UTC)
2022-04-21 (4 years ago)
Launch vehicle
FALCON 9
Launch site
Air Force Eastern Test Range (AFETR)
Object type
Payload
Rocket body
Debris
Shape & HBR
Box + 1 Pan, 10.1 m
Radar Cross Section
11.087 m², Large (>1 m²)

Expand to show TLE details & history
Last TLE update: 11 hours ago

TLE from 11 hours ago
0 STARLINK-3758
1 52297U 22041AN  26237.00002315  .00042524  00000-0  12973-2 0  9996
2 52297  53.1603  55.6232 0001172  67.3179 128.4540 15.33542460  5936
Epoch: 2026-08-25T00:00Z
TLE epoch observation values (Epoch: 2026-08-25T00:00:02.000Z)
Latitude
-12.72382°
Longitude
-87.97414°
Altitude
469.166 km
Speed
7.632 km/s
True Right ascension
16h 21m 13s
True Declination
-12° 38' 49"
Sunlit
Object was in daylight at epoch
Visualization orbit readout
Latitude
Unknown
Longitude
Unknown
Altitude
Unknown
Speed
Unknown
Apparent Right ascension
Unknown
Apparent Declination
Unknown
Sunlit
N/A
Visualization observer readout
Local Sidereal Time
02:28:13
Azimuth
Unknown
Elevation
Unknown
Doppler factor
Unknown
Orbital elements
Apogee altitude
466.312 km
Perigee altitude
464.708 km
Semi-major axis
6,843.647 km
Eccentricity
0.00012
Inclination
53.1603°
RAAN
55.6232°
Arg. of periapsis
67.3179°
True anomaly
128.46452°
Mean anomaly
128.454°
Eccentric anomaly
128.45926°
Mean motion
3.83364 °/min
Orbital period
93.91 mins
BSTAR
0.0012973
Loading maneuver chart data...
Computing Atmospheric mass density...
Loading historical data...
Loading historical data...
Loading historical data...
Loading historical data...
Loading historical data...
Loading historical data...
Loading historical data...

Documentation

Showing up to 5 results
|